UAL1327 KDEN-KSRQ

Flight info

Callsign UAL1327
Flight time 3h 0m
Altitude 35000
Route EPKEE7 GAETR ICT RZC KM27K MGMRY ACORI BANGZ2
Aircraft B738/M-SDE2E3FGHIRWXY/LB1

Departure

Time 2026-04-21 15:53
Airport Denver International Airport (KDEN)

Arrival

Time 2026-04-21 18:54
Airport Sarasota Bradenton International Airport (KSRQ)
Time Latitude Longitude Altitude Speed Heading
2026-04-21 15:30 39.85342 -104.67880 5380 ft 0 kts
2026-04-21 15:41 39.85336 -104.67880 5380 ft 4 kts
2026-04-21 15:42 39.85309 -104.67880 5380 ft 4 kts
2026-04-21 15:42 39.85282 -104.67880 5382 ft 4 kts
2026-04-21 15:42 39.85258 -104.67880 5381 ft 1 kts 359°
2026-04-21 15:42 39.85257 -104.67880 5381 ft 0 kts 359°
2026-04-21 15:45 39.85258 -104.67880 5381 ft 0 kts 359°
2026-04-21 15:45 39.85265 -104.67873 5382 ft 4 kts 42°
2026-04-21 15:45 39.85278 -104.67806 5381 ft 11 kts 81°
2026-04-21 15:45 39.85280 -104.67673 5382 ft 17 kts 91°
2026-04-21 15:46 39.85281 -104.67498 5382 ft 21 kts 90°
2026-04-21 15:46 39.85277 -104.67293 5382 ft 24 kts 91°
2026-04-21 15:46 39.85275 -104.67077 5382 ft 23 kts 90°
2026-04-21 15:46 39.85275 -104.66871 5382 ft 22 kts 90°
2026-04-21 15:47 39.85269 -104.66670 5384 ft 22 kts 89°
2026-04-21 15:47 39.85296 -104.66482 5388 ft 21 kts 86°
2026-04-21 15:47 39.85365 -104.66354 5390 ft 21 kts 358°
2026-04-21 15:47 39.85507 -104.66352 5392 ft 20 kts 359°
2026-04-21 15:48 39.85651 -104.66351 5386 ft 22 kts
2026-04-21 15:48 39.85803 -104.66348 5384 ft 21 kts
2026-04-21 15:48 39.85950 -104.66346 5384 ft 21 kts
2026-04-21 15:48 39.86094 -104.66345 5377 ft 21 kts
2026-04-21 15:49 39.86240 -104.66345 5378 ft 21 kts 360°
2026-04-21 15:49 39.86382 -104.66341 5378 ft 20 kts
2026-04-21 15:49 39.86520 -104.66341 5377 ft 19 kts 358°
2026-04-21 15:49 39.86653 -104.66338 5374 ft 19 kts
2026-04-21 15:50 39.86783 -104.66339 5371 ft 19 kts 359°
2026-04-21 15:50 39.86919 -104.66335 5368 ft 20 kts
2026-04-21 15:50 39.87062 -104.66334 5365 ft 21 kts
2026-04-21 15:50 39.87206 -104.66333 5363 ft 20 kts
2026-04-21 15:51 39.87346 -104.66329 5361 ft 20 kts
2026-04-21 15:51 39.87473 -104.66295 5359 ft 19 kts 56°
2026-04-21 15:51 39.87568 -104.66211 5361 ft 19 kts 360°
2026-04-21 15:51 39.87696 -104.66212 5361 ft 18 kts
2026-04-21 15:52 39.87757 -104.66091 5358 ft 23 kts 89°
2026-04-21 15:52 39.87750 -104.65587 5352 ft 90 kts 90°
2026-04-21 15:52 39.87743 -104.64486 5338 ft 152 kts 90°
2026-04-21 15:52 39.87694 -104.62909 5368 ft 197 kts 94°
2026-04-21 15:53 39.87633 -104.61054 5958 ft 213 kts 94°
2026-04-21 15:53 39.87541 -104.59102 6559 ft 222 kts 95°
2026-04-21 15:53 39.87231 -104.57033 6743 ft 244 kts 112°
2026-04-21 15:53 39.86482 -104.54956 6967 ft 264 kts 115°
2026-04-21 15:54 39.85657 -104.52689 7191 ft 288 kts 115°
2026-04-21 15:54 39.84805 -104.50295 7850 ft 292 kts 114°
2026-04-21 15:54 39.83958 -104.47874 8575 ft 295 kts 114°
2026-04-21 15:54 39.83113 -104.45433 9331 ft 299 kts 114°
2026-04-21 15:55 39.82258 -104.42955 10043 ft 302 kts 114°
2026-04-21 15:55 39.81385 -104.40424 10522 ft 315 kts 114°
2026-04-21 15:55 39.80454 -104.37724 10685 ft 338 kts 114°
2026-04-21 15:55 39.79457 -104.34850 10873 ft 358 kts 115°
2026-04-21 15:56 39.78430 -104.31896 11339 ft 366 kts 115°
2026-04-21 15:56 39.77376 -104.28868 11982 ft 369 kts 115°
2026-04-21 15:56 39.76310 -104.25801 12562 ft 375 kts 115°
2026-04-21 15:56 39.75231 -104.22698 13177 ft 379 kts 115°
2026-04-21 15:57 39.74143 -104.19576 13893 ft 379 kts 115°
2026-04-21 15:57 39.73052 -104.16449 14490 ft 382 kts 115°
2026-04-21 15:57 39.71947 -104.13294 15043 ft 386 kts 115°
2026-04-21 15:57 39.70823 -104.10116 15613 ft 389 kts 115°
2026-04-21 15:58 39.69687 -104.06911 16210 ft 391 kts 115°
2026-04-21 15:58 39.68544 -104.03690 16797 ft 394 kts 115°
2026-04-21 15:58 39.67392 -104.00441 17390 ft 397 kts 115°
2026-04-21 15:58 39.66232 -103.97174 17960 ft 400 kts 115°
2026-04-21 15:59 39.65060 -103.93930 18489 ft 403 kts 117°
2026-04-21 15:59 39.63754 -103.90694 18988 ft 406 kts 119°
2026-04-21 15:59 39.62399 -103.87476 19511 ft 408 kts 119°
2026-04-21 15:59 39.61042 -103.84230 19999 ft 411 kts 119°
2026-04-21 16:00 39.59681 -103.80938 20395 ft 416 kts 118°
2026-04-21 16:00 39.58422 -103.77546 20867 ft 420 kts 113°
2026-04-21 16:00 39.57374 -103.74005 21378 ft 421 kts 110°
2026-04-21 16:00 39.56405 -103.70401 21800 ft 426 kts 109°
2026-04-21 16:01 39.55438 -103.66738 22081 ft 433 kts 109°
2026-04-21 16:01 39.54449 -103.63040 22492 ft 436 kts 109°
2026-04-21 16:01 39.53434 -103.59330 22960 ft 438 kts 110°
2026-04-21 16:01 39.52397 -103.55608 23376 ft 441 kts 110°
2026-04-21 16:02 39.51338 -103.51852 23707 ft 445 kts 110°
2026-04-21 16:02 39.50268 -103.48088 24034 ft 448 kts 110°
2026-04-21 16:02 39.49182 -103.44279 24238 ft 454 kts 110°
2026-04-21 16:02 39.48101 -103.40494 24648 ft 453 kts 110°
2026-04-21 16:03 39.47003 -103.36656 24976 ft 456 kts 110°
2026-04-21 16:03 39.45904 -103.32819 25426 ft 454 kts 110°
2026-04-21 16:03 39.44803 -103.28977 25769 ft 456 kts 110°
2026-04-21 16:03 39.43693 -103.25110 26054 ft 459 kts 109°
2026-04-21 16:04 39.42579 -103.21233 26358 ft 462 kts 109°
2026-04-21 16:04 39.41453 -103.17317 26594 ft 466 kts 109°
2026-04-21 16:04 39.40318 -103.13381 26881 ft 468 kts 109°
2026-04-21 16:04 39.39180 -103.09436 27226 ft 469 kts 109°
2026-04-21 16:05 39.38038 -103.05484 27507 ft 471 kts 109°
2026-04-21 16:05 39.36885 -103.01499 27775 ft 473 kts 109°
2026-04-21 16:05 39.35727 -102.97507 28034 ft 475 kts 109°
2026-04-21 16:05 39.34668 -102.93509 28283 ft 477 kts 103°
2026-04-21 16:06 39.34014 -102.89310 28550 ft 477 kts 98°
2026-04-21 16:06 39.33526 -102.85064 28832 ft 478 kts 96°
2026-04-21 16:06 39.33088 -102.80800 29140 ft 479 kts 96°
2026-04-21 16:06 39.32646 -102.76537 29542 ft 478 kts 96°
2026-04-21 16:07 39.32183 -102.72295 29978 ft 476 kts 97°
2026-04-21 16:07 39.31697 -102.68073 30362 ft 474 kts 97°
2026-04-21 16:07 39.31193 -102.63876 30706 ft 473 kts 97°
2026-04-21 16:07 39.30677 -102.59680 31046 ft 472 kts 97°
2026-04-21 16:08 39.29811 -102.52748 31630 ft 469 kts 97°
2026-04-21 16:08 39.29288 -102.48595 31981 ft 468 kts 97°
2026-04-21 16:08 39.28767 -102.44454 32308 ft 467 kts 97°
2026-04-21 16:09 39.28246 -102.40322 32638 ft 466 kts 97°
2026-04-21 16:09 39.27725 -102.36201 32967 ft 464 kts 97°
2026-04-21 16:09 39.27205 -102.32090 33290 ft 463 kts 97°
2026-04-21 16:09 39.26685 -102.27992 33598 ft 462 kts 97°
2026-04-21 16:10 39.26165 -102.23904 33891 ft 461 kts 97°
2026-04-21 16:10 39.25645 -102.19821 34176 ft 460 kts 97°
2026-04-21 16:10 39.25125 -102.15763 34274 ft 459 kts 97°
2026-04-21 16:10 39.24604 -102.11698 34492 ft 458 kts 97°
2026-04-21 16:11 39.24088 -102.07688 34707 ft 458 kts 97°
2026-04-21 16:11 39.23565 -102.03633 34953 ft 457 kts 97°
2026-04-21 16:11 39.23042 -101.99593 35211 ft 456 kts 96°
2026-04-21 16:11 39.22519 -101.95560 35435 ft 456 kts 96°
2026-04-21 16:12 39.21994 -101.91525 35647 ft 455 kts 96°
2026-04-21 16:12 39.21468 -101.87495 35858 ft 455 kts 96°
2026-04-21 16:12 39.20941 -101.83472 36077 ft 454 kts 96°
2026-04-21 16:12 39.20414 -101.79450 36281 ft 454 kts 96°
2026-04-21 16:13 39.19887 -101.75453 36524 ft 452 kts 96°
2026-04-21 16:13 39.19361 -101.71464 36758 ft 450 kts 96°
2026-04-21 16:13 39.18834 -101.67484 36936 ft 450 kts 96°
2026-04-21 16:14 39.17781 -101.59547 36982 ft 452 kts 96°
2026-04-21 16:14 39.16718 -101.51594 36965 ft 449 kts 96°
2026-04-21 16:15 39.15656 -101.43693 36952 ft 446 kts 96°
2026-04-21 16:15 39.14595 -101.35830 36931 ft 445 kts 96°
2026-04-21 16:16 39.13531 -101.27988 36928 ft 444 kts 96°
2026-04-21 16:16 39.12467 -101.20183 36963 ft 445 kts 96°
2026-04-21 16:17 39.11389 -101.12315 36973 ft 447 kts 96°
2026-04-21 16:17 39.10300 -101.04413 37015 ft 449 kts 96°
2026-04-21 16:18 39.09201 -100.96470 37024 ft 451 kts 96°
2026-04-21 16:18 39.07909 -100.88603 37004 ft 459 kts 110°
2026-04-21 16:19 39.05082 -100.81205 37031 ft 462 kts 113°
2026-04-21 16:19 39.02149 -100.73828 37021 ft 463 kts 113°
2026-04-21 16:20 38.99251 -100.66419 37007 ft 464 kts 112°
2026-04-21 16:20 38.96382 -100.59004 36976 ft 463 kts 112°
2026-04-21 16:21 38.93516 -100.51586 36960 ft 463 kts 112°
2026-04-21 16:21 38.90649 -100.44177 36933 ft 462 kts 112°
2026-04-21 16:22 38.87798 -100.36835 36941 ft 461 kts 112°
2026-04-21 16:22 38.84932 -100.29476 36946 ft 461 kts 112°
2026-04-21 16:23 38.82066 -100.22133 36944 ft 460 kts 112°
2026-04-21 16:23 38.79203 -100.14814 36941 ft 459 kts 112°
2026-04-21 16:24 38.76337 -100.07506 36955 ft 459 kts 112°
2026-04-21 16:24 38.73466 -100.00201 36954 ft 459 kts 112°
2026-04-21 16:25 38.70587 -99.92896 36964 ft 459 kts 112°
2026-04-21 16:25 38.67724 -99.85647 36966 ft 459 kts 112°
2026-04-21 16:26 38.64833 -99.78343 36966 ft 460 kts 112°
2026-04-21 16:26 38.61934 -99.71041 36976 ft 460 kts 112°
2026-04-21 16:27 38.59028 -99.63736 36979 ft 461 kts 112°
2026-04-21 16:27 38.56112 -99.56423 36981 ft 462 kts 112°
2026-04-21 16:28 38.53191 -99.49114 36981 ft 462 kts 112°
2026-04-21 16:28 38.50258 -99.41794 36991 ft 463 kts 112°
2026-04-21 16:29 38.47321 -99.34479 36998 ft 463 kts 113°
2026-04-21 16:29 38.44377 -99.27168 37013 ft 463 kts 113°
2026-04-21 16:30 38.41428 -99.19857 37023 ft 464 kts 113°
2026-04-21 16:30 38.38474 -99.12555 37036 ft 463 kts 113°
2026-04-21 16:31 38.35535 -99.05304 37045 ft 464 kts 113°
2026-04-21 16:31 38.32569 -98.98005 37048 ft 464 kts 113°
2026-04-21 16:32 38.29602 -98.90719 37047 ft 463 kts 113°
2026-04-21 16:32 38.26632 -98.83446 37043 ft 463 kts 113°
2026-04-21 16:33 38.23662 -98.76187 37044 ft 462 kts 113°
2026-04-21 16:33 38.20688 -98.68936 37032 ft 462 kts 113°
2026-04-21 16:34 38.17728 -98.61736 37022 ft 462 kts 114°
2026-04-21 16:34 38.14732 -98.54465 37018 ft 461 kts 114°
2026-04-21 16:35 38.11770 -98.47293 37015 ft 461 kts 114°
2026-04-21 16:35 38.08787 -98.40086 37032 ft 461 kts 114°
2026-04-21 16:36 38.05800 -98.32886 37039 ft 461 kts 114°
2026-04-21 16:36 38.02800 -98.25671 37033 ft 462 kts 114°
2026-04-21 16:37 37.99797 -98.18465 37046 ft 462 kts 114°
2026-04-21 16:37 37.96787 -98.11258 37026 ft 463 kts 114°
2026-04-21 16:38 37.93764 -98.04039 37032 ft 464 kts 114°
2026-04-21 16:38 37.90731 -97.96809 37048 ft 465 kts 115°
2026-04-21 16:39 37.87706 -97.89618 37034 ft 466 kts 115°
2026-04-21 16:39 37.84652 -97.82374 37044 ft 466 kts 115°
2026-04-21 16:40 37.81596 -97.75140 37048 ft 467 kts 115°
2026-04-21 16:40 37.78528 -97.67894 37056 ft 467 kts 115°
2026-04-21 16:41 37.75976 -97.61876 37057 ft 467 kts 115°
2026-04-21 16:41 37.72428 -97.53445 37070 ft 467 kts 114°
2026-04-21 16:42 37.69445 -97.46171 37114 ft 466 kts 114°
2026-04-21 16:42 37.66470 -97.38911 37109 ft 466 kts 114°
2026-04-21 16:43 37.63482 -97.31656 37100 ft 465 kts 114°
2026-04-21 16:43 37.60490 -97.24425 37101 ft 465 kts 114°
2026-04-21 16:44 37.57491 -97.17200 37101 ft 464 kts 114°
2026-04-21 16:44 37.54496 -97.09997 37101 ft 464 kts 114°
2026-04-21 16:45 37.51516 -97.02847 37100 ft 463 kts 114°
2026-04-21 16:45 37.48514 -96.95662 37103 ft 463 kts 115°
2026-04-21 16:46 37.45510 -96.88487 37109 ft 463 kts 115°
2026-04-21 16:46 37.42505 -96.81323 37107 ft 463 kts 115°
2026-04-21 16:47 37.39491 -96.74155 37117 ft 464 kts 115°
2026-04-21 16:47 37.36466 -96.66977 37123 ft 465 kts 115°
2026-04-21 16:48 37.33433 -96.59797 37126 ft 465 kts 115°
2026-04-21 16:48 37.30390 -96.52609 37129 ft 466 kts 115°
2026-04-21 16:49 37.27336 -96.45414 37130 ft 468 kts 116°
2026-04-21 16:49 37.24268 -96.38197 37137 ft 469 kts 116°
2026-04-21 16:50 37.21206 -96.31013 37139 ft 471 kts 116°
2026-04-21 16:50 37.18107 -96.23760 37141 ft 472 kts 116°
2026-04-21 16:51 37.14992 -96.16483 37146 ft 474 kts 117°
2026-04-21 16:51 37.11867 -96.09200 37158 ft 475 kts 117°
2026-04-21 16:52 37.08731 -96.01908 37171 ft 476 kts 117°
2026-04-21 16:52 37.06115 -95.95840 37165 ft 477 kts 117°
2026-04-21 16:53 37.02427 -95.87302 37178 ft 477 kts 117°
2026-04-21 16:53 36.99285 -95.80044 37176 ft 477 kts 118°
2026-04-21 16:54 36.96116 -95.72740 37171 ft 477 kts 118°
2026-04-21 16:54 36.92945 -95.65448 37167 ft 477 kts 118°
2026-04-21 16:55 36.89769 -95.58164 37177 ft 477 kts 118°
2026-04-21 16:55 36.86590 -95.50888 37175 ft 477 kts 118°
2026-04-21 16:56 36.83947 -95.44849 37178 ft 476 kts 118°
2026-04-21 16:56 36.80250 -95.36422 37180 ft 476 kts 118°
2026-04-21 16:57 36.77065 -95.29181 37183 ft 476 kts 119°
2026-04-21 16:57 36.74414 -95.23164 37193 ft 476 kts 119°
2026-04-21 16:58 36.71222 -95.15934 37201 ft 476 kts 119°
2026-04-21 16:58 36.68021 -95.08702 37202 ft 476 kts 119°
2026-04-21 16:59 36.64818 -95.01479 37215 ft 477 kts 119°
2026-04-21 16:59 36.61604 -94.94253 37224 ft 477 kts 120°
2026-04-21 17:00 36.58380 -94.87013 37226 ft 478 kts 120°
2026-04-21 17:00 36.55694 -94.80998 37211 ft 479 kts 120°
2026-04-21 17:01 36.51925 -94.72569 37214 ft 480 kts 120°
2026-04-21 17:01 36.48670 -94.65308 37230 ft 481 kts 120°
2026-04-21 17:02 36.45402 -94.58034 37238 ft 482 kts 120°
2026-04-21 17:02 36.42116 -94.50743 37242 ft 483 kts 121°
2026-04-21 17:03 36.38826 -94.43448 37248 ft 484 kts 121°
2026-04-21 17:03 36.35526 -94.36151 37261 ft 484 kts 121°
2026-04-21 17:04 36.32224 -94.28865 37254 ft 485 kts 121°
2026-04-21 17:04 36.28937 -94.21629 37267 ft 484 kts 121°
2026-04-21 17:05 36.25623 -94.14346 37256 ft 485 kts 122°
2026-04-21 17:05 36.22441 -94.06981 37271 ft 485 kts 118°
2026-04-21 17:06 36.19473 -93.99460 37268 ft 486 kts 118°
2026-04-21 17:06 36.16524 -93.91935 37245 ft 486 kts 118°
2026-04-21 17:07 36.13544 -93.84433 37249 ft 486 kts 118°
2026-04-21 17:07 36.10532 -93.76929 37231 ft 486 kts 119°
2026-04-21 17:08 36.07531 -93.69479 37222 ft 487 kts 119°
2026-04-21 17:08 36.04504 -93.61984 37233 ft 488 kts 119°
2026-04-21 17:09 35.99948 -93.50726 37239 ft 489 kts 119°
2026-04-21 17:09 35.96903 -93.43223 37236 ft 489 kts 119°
2026-04-21 17:10 35.93852 -93.35721 37242 ft 489 kts 119°
2026-04-21 17:10 35.90797 -93.28225 37248 ft 489 kts 119°
2026-04-21 17:11 35.87729 -93.20726 37234 ft 489 kts 119°
2026-04-21 17:11 35.84682 -93.13290 37242 ft 489 kts 119°
2026-04-21 17:12 35.81609 -93.05804 37232 ft 488 kts 119°
2026-04-21 17:12 35.78534 -92.98328 37250 ft 489 kts 119°
2026-04-21 17:13 35.75456 -92.90859 37253 ft 490 kts 120°
2026-04-21 17:13 35.72365 -92.83381 37248 ft 490 kts 120°
2026-04-21 17:14 35.69265 -92.75899 37269 ft 490 kts 120°
2026-04-21 17:14 35.66181 -92.68471 37283 ft 491 kts 120°
2026-04-21 17:15 35.63070 -92.60997 37295 ft 491 kts 120°
2026-04-21 17:15 35.59954 -92.53524 37302 ft 491 kts 120°
2026-04-21 17:16 35.56836 -92.46065 37304 ft 490 kts 120°
2026-04-21 17:16 35.53716 -92.38619 37304 ft 490 kts 120°
2026-04-21 17:17 35.50590 -92.31175 37295 ft 490 kts 120°
2026-04-21 17:17 35.47483 -92.23792 37271 ft 489 kts 120°
2026-04-21 17:18 35.44356 -92.16378 37279 ft 489 kts 120°
2026-04-21 17:18 35.41224 -92.08970 37286 ft 488 kts 120°
2026-04-21 17:19 35.38097 -92.01588 37283 ft 488 kts 120°
2026-04-21 17:19 35.34980 -91.94249 37286 ft 488 kts 120°
2026-04-21 17:20 35.31845 -91.86881 37308 ft 488 kts 120°
2026-04-21 17:20 35.28701 -91.79511 37316 ft 488 kts 120°
2026-04-21 17:21 35.25545 -91.72125 37312 ft 489 kts 120°
2026-04-21 17:21 35.22384 -91.64748 37297 ft 489 kts 120°
2026-04-21 17:22 35.19221 -91.57380 37310 ft 490 kts 120°
2026-04-21 17:22 35.16068 -91.50051 37314 ft 490 kts 120°
2026-04-21 17:23 35.12885 -91.42669 37296 ft 491 kts 120°
2026-04-21 17:23 35.09691 -91.35279 37296 ft 492 kts 120°
2026-04-21 17:24 35.06485 -91.27876 37291 ft 493 kts 120°
2026-04-21 17:24 35.03273 -91.20474 37296 ft 493 kts 120°
2026-04-21 17:25 35.00071 -91.13113 37295 ft 494 kts 120°
2026-04-21 17:25 34.96845 -91.05712 37291 ft 494 kts 120°
2026-04-21 17:26 34.93614 -90.98317 37296 ft 494 kts 120°
2026-04-21 17:26 34.90382 -90.90934 37295 ft 494 kts 121°
2026-04-21 17:27 34.87144 -90.83553 37298 ft 494 kts 121°
2026-04-21 17:27 34.83899 -90.76173 37295 ft 494 kts 121°
2026-04-21 17:28 34.80656 -90.68815 37305 ft 493 kts 121°
2026-04-21 17:28 34.77407 -90.61457 37324 ft 493 kts 121°
2026-04-21 17:29 34.74173 -90.54150 37307 ft 493 kts 121°
2026-04-21 17:29 34.70914 -90.46799 37312 ft 493 kts 121°
2026-04-21 17:30 34.67656 -90.39469 37310 ft 492 kts 121°
2026-04-21 17:30 34.64396 -90.32149 37305 ft 493 kts 121°
2026-04-21 17:31 34.61130 -90.24832 37318 ft 493 kts 121°
2026-04-21 17:31 34.57859 -90.17518 37312 ft 493 kts 121°
2026-04-21 17:32 34.54578 -90.10195 37308 ft 494 kts 121°
2026-04-21 17:32 34.51314 -90.02925 37318 ft 494 kts 121°
2026-04-21 17:33 34.47753 -89.95830 37309 ft 491 kts 128°
2026-04-21 17:33 34.43749 -89.89137 37321 ft 490 kts 130°
2026-04-21 17:34 34.39701 -89.82478 37317 ft 490 kts 130°
2026-04-21 17:34 34.35693 -89.75787 37322 ft 491 kts 129°
2026-04-21 17:35 34.31699 -89.69060 37345 ft 491 kts 129°
2026-04-21 17:35 34.27713 -89.62340 37348 ft 492 kts 129°
2026-04-21 17:36 34.23720 -89.55623 37339 ft 492 kts 129°
2026-04-21 17:36 34.19717 -89.48907 37323 ft 492 kts 129°
2026-04-21 17:37 34.15743 -89.42252 37329 ft 492 kts 129°
2026-04-21 17:37 34.11732 -89.35550 37319 ft 492 kts 129°
2026-04-21 17:38 34.07717 -89.28853 37322 ft 492 kts 129°
2026-04-21 17:38 34.03707 -89.22176 37326 ft 492 kts 129°
2026-04-21 17:39 33.99692 -89.15503 37323 ft 492 kts 129°
2026-04-21 17:39 33.95669 -89.08829 37323 ft 492 kts 130°
2026-04-21 17:40 33.91666 -89.02200 37328 ft 492 kts 130°
2026-04-21 17:40 33.87635 -88.95538 37334 ft 492 kts 130°
2026-04-21 17:41 33.83599 -88.88880 37341 ft 493 kts 130°
2026-04-21 17:41 33.79550 -88.82213 37338 ft 494 kts 130°
2026-04-21 17:42 33.75487 -88.75534 37344 ft 494 kts 130°
2026-04-21 17:42 33.72111 -88.69994 37347 ft 495 kts 130°
2026-04-21 17:43 33.68041 -88.63326 37348 ft 495 kts 130°
2026-04-21 17:43 33.63295 -88.55565 37340 ft 496 kts 130°
2026-04-21 17:44 33.59872 -88.49978 37350 ft 496 kts 130°
2026-04-21 17:44 33.55779 -88.43309 37344 ft 497 kts 130°
2026-04-21 17:45 33.51704 -88.36682 37344 ft 497 kts 130°
2026-04-21 17:45 33.47594 -88.30011 37345 ft 498 kts 130°
2026-04-21 17:46 33.43477 -88.23339 37346 ft 498 kts 130°
2026-04-21 17:46 33.39356 -88.16672 37348 ft 498 kts 130°
2026-04-21 17:47 33.35229 -88.10009 37347 ft 498 kts 130°
2026-04-21 17:47 33.31094 -88.03345 37345 ft 498 kts 130°
2026-04-21 17:48 33.26957 -87.96689 37348 ft 498 kts 130°
2026-04-21 17:48 33.22820 -87.90046 37356 ft 498 kts 130°
2026-04-21 17:49 33.18678 -87.83405 37356 ft 498 kts 130°
2026-04-21 17:49 33.14558 -87.76813 37364 ft 497 kts 130°
2026-04-21 17:50 33.10416 -87.70197 37369 ft 497 kts 130°
2026-04-21 17:50 33.06277 -87.63598 37364 ft 497 kts 130°
2026-04-21 17:51 33.02140 -87.57012 37336 ft 496 kts 130°
2026-04-21 17:51 32.97991 -87.50421 37335 ft 496 kts 130°
2026-04-21 17:52 32.93874 -87.43892 37319 ft 496 kts 130°
2026-04-21 17:52 32.89718 -87.37312 37327 ft 496 kts 130°
2026-04-21 17:53 32.85560 -87.30742 37293 ft 497 kts 130°
2026-04-21 17:53 32.81401 -87.24180 37329 ft 496 kts 130°
2026-04-21 17:54 32.77269 -87.17673 37322 ft 497 kts 130°
2026-04-21 17:54 32.73103 -87.11124 37318 ft 497 kts 130°
2026-04-21 17:55 32.68924 -87.04567 37317 ft 498 kts 130°
2026-04-21 17:55 32.64742 -86.98014 37320 ft 498 kts 130°
2026-04-21 17:56 32.60546 -86.91453 37335 ft 499 kts 130°
2026-04-21 17:56 32.56346 -86.84896 37301 ft 499 kts 130°
2026-04-21 17:57 32.52134 -86.78331 37333 ft 499 kts 130°
2026-04-21 17:57 32.47948 -86.71820 37334 ft 500 kts 130°
2026-04-21 17:58 32.43930 -86.65579 37313 ft 500 kts 130°
2026-04-21 17:58 32.39714 -86.59042 37338 ft 499 kts 130°
2026-04-21 17:59 32.35492 -86.52507 37339 ft 500 kts 130°
2026-04-21 17:59 32.31262 -86.45971 37360 ft 500 kts 130°
2026-04-21 18:00 32.27024 -86.39431 37350 ft 500 kts 130°
2026-04-21 18:00 32.22802 -86.32955 37341 ft 500 kts 133°
2026-04-21 18:01 32.17853 -86.27278 37350 ft 495 kts 143°
2026-04-21 18:01 32.12609 -86.22000 37332 ft 496 kts 143°
2026-04-21 18:02 32.07372 -86.16683 37336 ft 497 kts 143°
2026-04-21 18:02 32.02181 -86.11346 37337 ft 498 kts 143°
2026-04-21 18:03 31.96961 -86.05966 37335 ft 499 kts 143°
2026-04-21 18:03 31.91725 -86.00582 37346 ft 499 kts 143°
2026-04-21 18:04 31.86481 -85.95202 37342 ft 500 kts 143°
2026-04-21 18:04 31.81225 -85.89817 37342 ft 501 kts 143°
2026-04-21 18:05 31.75967 -85.84436 37337 ft 501 kts 143°
2026-04-21 18:05 31.70724 -85.79028 37326 ft 501 kts 142°
2026-04-21 18:06 31.65494 -85.73620 37337 ft 501 kts 142°
2026-04-21 18:06 31.60294 -85.68257 37345 ft 501 kts 142°
2026-04-21 18:07 31.55058 -85.62868 37346 ft 501 kts 143°
2026-04-21 18:07 31.49823 -85.57491 37348 ft 500 kts 143°
2026-04-21 18:08 31.44585 -85.52119 37353 ft 500 kts 143°
2026-04-21 18:08 31.39354 -85.46762 37351 ft 499 kts 143°
2026-04-21 18:09 31.34123 -85.41414 37366 ft 499 kts 143°
2026-04-21 18:09 31.28892 -85.36073 37358 ft 499 kts 143°
2026-04-21 18:10 31.23683 -85.30764 37346 ft 499 kts 143°
2026-04-21 18:10 31.18440 -85.25428 37338 ft 500 kts 143°
2026-04-21 18:11 31.13198 -85.20100 37325 ft 499 kts 143°
2026-04-21 18:11 31.07954 -85.14779 37325 ft 500 kts 143°
2026-04-21 18:12 31.02706 -85.09462 37328 ft 500 kts 143°
2026-04-21 18:12 30.97449 -85.04143 37327 ft 500 kts 143°
2026-04-21 18:13 30.92186 -84.98827 37321 ft 501 kts 143°
2026-04-21 18:13 30.86921 -84.93515 37319 ft 501 kts 143°
2026-04-21 18:14 30.79261 -84.85801 37315 ft 501 kts 143°
2026-04-21 18:15 30.73984 -84.80502 37316 ft 501 kts 143°
2026-04-21 18:15 30.68699 -84.75211 37323 ft 501 kts 143°
2026-04-21 18:16 30.63443 -84.69955 37323 ft 501 kts 143°
2026-04-21 18:16 30.58151 -84.64668 37318 ft 500 kts 143°
2026-04-21 18:17 30.52872 -84.59401 37318 ft 499 kts 143°
2026-04-21 18:17 30.47598 -84.54147 37313 ft 499 kts 143°
2026-04-21 18:18 30.42362 -84.48939 37315 ft 499 kts 143°
2026-04-21 18:18 30.37060 -84.43672 37324 ft 503 kts 143°
2026-04-21 18:19 30.31728 -84.38384 37323 ft 506 kts 143°
2026-04-21 18:19 30.26363 -84.33065 37283 ft 508 kts 143°
2026-04-21 18:20 30.20992 -84.27743 37313 ft 508 kts 143°
2026-04-21 18:20 30.15661 -84.22466 37312 ft 508 kts 143°
2026-04-21 18:21 30.10292 -84.17161 37308 ft 507 kts 143°
2026-04-21 18:21 30.04940 -84.11880 37305 ft 505 kts 143°
2026-04-21 18:22 29.99607 -84.06627 37310 ft 503 kts 143°
2026-04-21 18:22 29.94288 -84.01393 37294 ft 501 kts 143°
2026-04-21 18:23 29.88982 -83.96180 37303 ft 500 kts 143°
2026-04-21 18:23 29.83687 -83.90988 37309 ft 499 kts 144°
2026-04-21 18:24 29.78015 -83.86629 37322 ft 491 kts 156°
2026-04-21 18:24 29.72005 -83.82864 37306 ft 492 kts 157°
2026-04-21 18:25 29.65991 -83.79074 37293 ft 494 kts 156°
2026-04-21 18:25 29.59976 -83.75217 37303 ft 495 kts 156°
2026-04-21 18:26 29.53919 -83.71320 36691 ft 504 kts 155°
2026-04-21 18:26 29.50862 -83.69355 36155 ft 502 kts 155°
2026-04-21 18:26 29.47816 -83.67398 35537 ft 503 kts 155°
2026-04-21 18:26 29.44754 -83.65433 34903 ft 505 kts 154°
2026-04-21 18:27 29.41680 -83.63463 34225 ft 507 kts 154°
2026-04-21 18:27 29.38588 -83.61483 33437 ft 510 kts 154°
2026-04-21 18:27 29.35528 -83.59554 32906 ft 506 kts 156°
2026-04-21 18:27 29.32321 -83.57989 32426 ft 497 kts 166°
2026-04-21 18:28 29.29032 -83.56868 31960 ft 491 kts 168°
2026-04-21 18:28 29.25754 -83.55818 31487 ft 487 kts 168°
2026-04-21 18:28 29.22496 -83.54776 31029 ft 483 kts 168°
2026-04-21 18:28 29.19276 -83.53727 30574 ft 480 kts 168°
2026-04-21 18:29 29.16073 -83.52661 30067 ft 477 kts 167°
2026-04-21 18:29 29.12903 -83.51593 29552 ft 473 kts 167°
2026-04-21 18:29 29.09760 -83.50528 29058 ft 469 kts 167°
2026-04-21 18:29 29.06643 -83.49472 28589 ft 464 kts 167°
2026-04-21 18:30 29.03564 -83.48431 28131 ft 459 kts 167°
2026-04-21 18:30 29.00548 -83.47414 27674 ft 455 kts 167°
2026-04-21 18:30 28.97522 -83.46372 27221 ft 452 kts 165°
2026-04-21 18:30 28.94586 -83.45049 26648 ft 454 kts 160°
2026-04-21 18:31 28.91708 -83.43561 26104 ft 453 kts 159°
2026-04-21 18:31 28.88870 -83.42036 25538 ft 448 kts 158°
2026-04-21 18:31 28.86070 -83.40528 24983 ft 442 kts 159°
2026-04-21 18:31 28.83300 -83.39053 24425 ft 436 kts 159°
2026-04-21 18:32 28.81485 -83.38097 24062 ft 432 kts 159°
2026-04-21 18:32 28.78770 -83.36680 23452 ft 426 kts 159°
2026-04-21 18:32 28.76099 -83.35297 22885 ft 418 kts 159°
2026-04-21 18:32 28.73468 -83.33940 22356 ft 411 kts 159°
2026-04-21 18:33 28.70879 -83.32608 21842 ft 405 kts 159°
2026-04-21 18:33 28.68321 -83.31293 21339 ft 401 kts 159°
2026-04-21 18:33 28.65791 -83.29993 20850 ft 397 kts 158°
2026-04-21 18:33 28.63289 -83.28708 20366 ft 393 kts 158°
2026-04-21 18:34 28.60807 -83.27432 19876 ft 389 kts 158°
2026-04-21 18:34 28.58351 -83.26171 19400 ft 385 kts 157°
2026-04-21 18:34 28.55946 -83.24936 18918 ft 382 kts 157°
2026-04-21 18:34 28.53527 -83.23695 18330 ft 381 kts 157°
2026-04-21 18:35 28.51095 -83.22447 17674 ft 381 kts 156°
2026-04-21 18:35 28.48696 -83.21216 17157 ft 377 kts 156°
2026-04-21 18:35 28.46318 -83.19997 16666 ft 371 kts 156°
2026-04-21 18:35 28.43974 -83.18795 16197 ft 369 kts 156°
2026-04-21 18:36 28.41633 -83.17596 15757 ft 368 kts 156°
2026-04-21 18:36 28.39298 -83.16402 15298 ft 367 kts 156°
2026-04-21 18:36 28.36961 -83.15224 14837 ft 367 kts 156°
2026-04-21 18:36 28.34636 -83.14066 14377 ft 362 kts 156°
2026-04-21 18:37 28.32373 -83.12941 13898 ft 357 kts 156°
2026-04-21 18:37 28.30119 -83.11817 13416 ft 351 kts 155°
2026-04-21 18:37 28.27936 -83.10628 12971 ft 344 kts 148°
2026-04-21 18:37 28.26058 -83.09013 12719 ft 336 kts 137°
2026-04-21 18:38 28.24327 -83.07266 12458 ft 331 kts 137°
2026-04-21 18:38 28.22581 -83.05526 12205 ft 337 kts 137°
2026-04-21 18:38 28.20766 -83.03823 11932 ft 341 kts 146°
2026-04-21 18:38 28.18620 -83.02710 11664 ft 341 kts 165°
2026-04-21 18:39 28.16275 -83.02362 11415 ft 341 kts 177°
2026-04-21 18:39 28.13896 -83.02263 11145 ft 342 kts 178°
2026-04-21 18:39 28.11527 -83.02190 10868 ft 338 kts 178°
2026-04-21 18:39 28.09196 -83.02116 10602 ft 333 kts 178°
2026-04-21 18:40 28.06912 -83.02035 10334 ft 322 kts 178°
2026-04-21 18:40 28.04717 -83.01950 10075 ft 310 kts 178°
2026-04-21 18:40 28.03303 -83.01892 9956 ft 300 kts 178°
2026-04-21 18:40 28.00588 -83.01777 9607 ft 287 kts 177°
2026-04-21 18:41 27.98623 -83.01692 9382 ft 279 kts 177°
2026-04-21 18:41 27.96718 -83.01609 9156 ft 277 kts 176°
2026-04-21 18:41 27.94792 -83.01524 8948 ft 277 kts 176°
2026-04-21 18:41 27.92853 -83.01437 8730 ft 280 kts 176°
2026-04-21 18:42 27.90900 -83.01350 8515 ft 281 kts 176°
2026-04-21 18:42 27.88944 -83.01263 8295 ft 282 kts 175°
2026-04-21 18:42 27.86981 -83.01175 8065 ft 283 kts 176°
2026-04-21 18:42 27.85018 -83.01088 7840 ft 281 kts 176°
2026-04-21 18:43 27.83076 -83.01003 7606 ft 277 kts 175°
2026-04-21 18:43 27.81172 -83.00919 7387 ft 272 kts 175°
2026-04-21 18:43 27.79357 -83.00505 7165 ft 264 kts 151°
2026-04-21 18:43 27.77875 -82.99335 6999 ft 258 kts 136°
2026-04-21 18:44 27.76509 -82.98031 6785 ft 257 kts 135°
2026-04-21 18:44 27.75156 -82.96715 6567 ft 256 kts 135°
2026-04-21 18:44 27.73811 -82.95400 6351 ft 255 kts 135°
2026-04-21 18:44 27.72481 -82.94088 6146 ft 253 kts 135°
2026-04-21 18:45 27.71160 -82.92782 5940 ft 251 kts 135°
2026-04-21 18:45 27.69852 -82.91480 5752 ft 250 kts 135°
2026-04-21 18:45 27.68563 -82.90181 5586 ft 247 kts 134°
2026-04-21 18:45 27.67295 -82.88876 5370 ft 247 kts 134°
2026-04-21 18:46 27.66031 -82.87571 5185 ft 246 kts 134°
2026-04-21 18:46 27.64768 -82.86270 4981 ft 245 kts 134°
2026-04-21 18:46 27.63507 -82.84977 4788 ft 245 kts 134°
2026-04-21 18:46 27.62248 -82.83688 4582 ft 244 kts 134°
2026-04-21 18:47 27.61010 -82.82420 4390 ft 243 kts 134°
2026-04-21 18:47 27.59762 -82.81135 4207 ft 243 kts 134°
2026-04-21 18:47 27.58515 -82.79851 4027 ft 243 kts 134°
2026-04-21 18:47 27.57267 -82.78566 3836 ft 241 kts 134°
2026-04-21 18:48 27.56037 -82.77312 3639 ft 235 kts 134°
2026-04-21 18:48 27.54837 -82.76107 3458 ft 226 kts 131°
2026-04-21 18:48 27.53859 -82.74791 3323 ft 213 kts 118°
2026-04-21 18:48 27.53161 -82.73359 3216 ft 208 kts 114°
2026-04-21 18:49 27.52481 -82.71926 2975 ft 206 kts 114°
2026-04-21 18:49 27.51813 -82.70531 2815 ft 199 kts 114°
2026-04-21 18:49 27.51386 -82.69631 2694 ft 194 kts 114°
2026-04-21 18:49 27.50386 -82.68028 2511 ft 185 kts 130°
2026-04-21 18:50 27.49492 -82.67000 2388 ft 180 kts 126°
2026-04-21 18:50 27.48654 -82.66001 2224 ft 170 kts 127°
2026-04-21 18:50 27.47853 -82.65073 2131 ft 159 kts 127°
2026-04-21 18:50 27.47107 -82.64214 1928 ft 148 kts 127°
2026-04-21 18:51 27.46395 -82.63392 1750 ft 147 kts 128°
2026-04-21 18:51 27.45688 -82.62577 1562 ft 148 kts 128°
2026-04-21 18:51 27.44967 -82.61749 1363 ft 147 kts 128°
2026-04-21 18:51 27.44273 -82.60952 1193 ft 140 kts 128°
2026-04-21 18:52 27.43585 -82.60158 1010 ft 142 kts 130°
2026-04-21 18:52 27.42894 -82.59363 819 ft 141 kts 131°
2026-04-21 18:52 27.42205 -82.58571 622 ft 143 kts 132°
2026-04-21 18:52 27.41517 -82.57755 433 ft 145 kts 129°
2026-04-21 18:53 27.40799 -82.56967 209 ft 145 kts 129°
2026-04-21 18:53 27.40091 -82.56142 43 ft 147 kts 129°
2026-04-21 18:53 27.39478 -82.55385 28 ft 105 kts 127°
2026-04-21 18:53 27.39104 -82.54994 28 ft 50 kts 135°
2026-04-21 18:54 27.38949 -82.54825 29 ft 23 kts 133°
2026-04-21 18:54 27.38830 -82.54774 30 ft 20 kts 212°
2026-04-21 18:54 27.38852 -82.54899 30 ft 19 kts 313°
2026-04-21 18:54 27.38944 -82.55005 29 ft 19 kts 315°
2026-04-21 18:55 27.39006 -82.55074 29 ft 18 kts 316°
2026-04-21 18:55 27.39101 -82.55179 29 ft 6 kts 313°
2026-04-21 18:55 27.39130 -82.55218 29 ft 6 kts 300°
2026-04-21 18:55 27.39112 -82.55259 29 ft 6 kts 226°
2026-04-21 18:56 27.39077 -82.55281 30 ft 6 kts 160°
2026-04-21 18:56 27.39041 -82.55252 30 ft 6 kts 166°
2026-04-21 18:56 27.39015 -82.55291 30 ft 7 kts 253°
2026-04-21 18:56 27.39009 -82.55314 30 ft 1 kts 256°
2026-04-21 18:57 27.39007 -82.55322 30 ft 0 kts 256°